VIR21 KLAX-EGLL

Flight info

Callsign VIR21
Flight time N/A
Altitude 35000
Route OSHNN1 BEALE Q842 WINEN DCT DTA DCT BOY DCT OLIIV DCT KU12U DCT PETBO DCT LEATS DCT YTH/N0487F370 DCT 61N090W 64N080W 65N070W/M085F370 DCT IKNOG DCT 66N050W 6530N04000W/M085F390 6430N03000W 62N020W DCT ETILO/N0484F390 DCT EVNAL DCT KELLY L10 WAL UY53 NUGRA
Aircraft A35K/H-SDE2E3GHIJ3J4J5LM1ORWXY/LB1D1

Departure

Time 2026-04-25 04:05
Airport Los Angeles International Airport (KLAX)

Arrival

Time N/A
Airport London Heathrow Airport (EGLL)
Time Latitude Longitude Altitude Speed Heading
2026-04-25 03:24 33.94023 -118.40931 99 ft 0 kts 263°
2026-04-25 03:51 33.94023 -118.40930 99 ft 1 kts 263°
2026-04-25 03:51 33.94025 -118.40903 98 ft 4 kts 263°
2026-04-25 03:52 33.94029 -118.40877 99 ft 4 kts 255°
2026-04-25 03:52 33.94030 -118.40871 100 ft 4 kts 251°
2026-04-25 03:52 33.94038 -118.40850 96 ft 4 kts 230°
2026-04-25 03:53 33.94058 -118.40833 100 ft 4 kts 187°
2026-04-25 03:53 33.94066 -118.40832 99 ft 0 kts 174°
2026-04-25 03:55 33.94042 -118.40829 101 ft 8 kts 173°
2026-04-25 03:56 33.93983 -118.40821 99 ft 9 kts 173°
2026-04-25 03:56 33.93915 -118.40807 100 ft 10 kts 159°
2026-04-25 03:56 33.93851 -118.40754 102 ft 12 kts 141°
2026-04-25 03:56 33.93814 -118.40668 104 ft 12 kts 97°
2026-04-25 03:57 33.93820 -118.40562 101 ft 13 kts 83°
2026-04-25 03:57 33.93832 -118.40446 101 ft 15 kts 83°
2026-04-25 03:57 33.93845 -118.40320 101 ft 16 kts 82°
2026-04-25 03:57 33.93860 -118.40183 103 ft 17 kts 84°
2026-04-25 03:58 33.93874 -118.40036 102 ft 18 kts 83°
2026-04-25 03:58 33.93890 -118.39880 102 ft 20 kts 83°
2026-04-25 03:58 33.93907 -118.39708 101 ft 22 kts 83°
2026-04-25 03:58 33.93926 -118.39520 103 ft 23 kts 83°
2026-04-25 03:59 33.93947 -118.39325 101 ft 25 kts 83°
2026-04-25 03:59 33.93969 -118.39115 100 ft 26 kts 83°
2026-04-25 03:59 33.93991 -118.38905 100 ft 23 kts 83°
2026-04-25 03:59 33.94010 -118.38721 103 ft 22 kts 83°
2026-04-25 04:00 33.94029 -118.38537 101 ft 23 kts 83°
2026-04-25 04:00 33.94049 -118.38345 103 ft 24 kts 83°
2026-04-25 04:00 33.94068 -118.38148 99 ft 21 kts 82°
2026-04-25 04:00 33.94076 -118.38059 100 ft 4 kts 89°
2026-04-25 04:01 33.94076 -118.38056 99 ft 0 kts 91°
2026-04-25 04:02 33.94070 -118.38029 99 ft 7 kts 114°
2026-04-25 04:02 33.94028 -118.37998 100 ft 7 kts 169°
2026-04-25 04:03 33.94014 -118.37996 100 ft 1 kts 176°
2026-04-25 04:03 33.94010 -118.37999 101 ft 1 kts 193°
2026-04-25 04:03 33.94003 -118.38005 101 ft 2 kts 215°
2026-04-25 04:03 33.93994 -118.38022 102 ft 3 kts 241°
2026-04-25 04:04 33.93976 -118.38090 101 ft 18 kts 258°
2026-04-25 04:04 33.93934 -118.38520 105 ft 87 kts 263°
2026-04-25 04:04 33.93834 -118.39524 102 ft 152 kts 263°
2026-04-25 04:04 33.93685 -118.40957 457 ft 176 kts 262°
2026-04-25 04:05 33.93565 -118.42293 1694 ft 151 kts 263°
2026-04-25 04:05 33.93495 -118.43556 2333 ft 151 kts 266°
2026-04-25 04:05 33.93452 -118.44856 2719 ft 157 kts 266°
2026-04-25 04:05 33.93418 -118.46202 3064 ft 164 kts 265°
2026-04-25 04:06 33.93038 -118.47512 3255 ft 175 kts 226°
2026-04-25 04:06 33.92094 -118.48527 3497 ft 190 kts 219°
2026-04-25 04:06 33.91058 -118.49640 3705 ft 211 kts 224°
2026-04-25 04:06 33.89993 -118.50924 3953 ft 229 kts 226°
2026-04-25 04:07 33.88847 -118.52398 4256 ft 247 kts 228°
2026-04-25 04:07 33.87688 -118.53961 4687 ft 258 kts 229°
2026-04-25 04:07 33.86314 -118.55377 5316 ft 262 kts 210°
2026-04-25 04:07 33.84561 -118.55985 5988 ft 268 kts 182°
2026-04-25 04:08 33.82688 -118.55693 6664 ft 274 kts 170°
2026-04-25 04:08 33.80825 -118.55162 7316 ft 277 kts 169°
2026-04-25 04:08 33.78933 -118.54617 8010 ft 281 kts 169°
2026-04-25 04:08 33.77018 -118.54081 8734 ft 284 kts 170°
2026-04-25 04:09 33.75076 -118.53545 9460 ft 288 kts 170°
2026-04-25 04:09 33.73135 -118.53015 10128 ft 292 kts 171°
2026-04-25 04:09 33.71143 -118.52232 10467 ft 314 kts 156°
2026-04-25 04:09 33.69409 -118.50500 10705 ft 341 kts 129°
2026-04-25 04:10 33.68610 -118.48789 10879 ft 355 kts 114°
2026-04-25 04:10 33.67748 -118.45931 11188 ft 373 kts 110°
2026-04-25 04:10 33.66912 -118.42919 11455 ft 388 kts 110°
2026-04-25 04:10 33.66023 -118.39780 11705 ft 403 kts 111°
2026-04-25 04:11 33.64488 -118.33174 12464 ft 424 kts 96°
2026-04-25 04:11 33.64394 -118.29622 12963 ft 429 kts 90°
2026-04-25 04:11 33.64411 -118.26049 13455 ft 435 kts 90°
2026-04-25 04:12 33.64504 -118.22368 13917 ft 440 kts 84°
2026-04-25 04:12 33.65257 -118.18812 14341 ft 442 kts 65°
2026-04-25 04:12 33.66879 -118.15700 14787 ft 440 kts 45°
2026-04-25 04:12 33.69168 -118.13293 15236 ft 437 kts 31°
2026-04-25 04:13 33.71671 -118.11198 15690 ft 440 kts 30°
2026-04-25 04:13 33.74198 -118.09074 16142 ft 444 kts 31°
2026-04-25 04:13 33.76720 -118.06897 16571 ft 448 kts 31°
2026-04-25 04:13 33.79251 -118.04673 17001 ft 453 kts 32°
2026-04-25 04:14 33.81792 -118.02417 17437 ft 456 kts 32°
2026-04-25 04:14 33.84350 -118.00130 17907 ft 460 kts 32°
2026-04-25 04:14 33.86927 -117.97820 18361 ft 463 kts 32°
2026-04-25 04:14 33.89521 -117.95488 18797 ft 466 kts 32°
2026-04-25 04:15 33.92090 -117.93177 19213 ft 469 kts 32°
2026-04-25 04:15 33.94700 -117.90798 19640 ft 472 kts 32°
2026-04-25 04:15 33.97325 -117.88397 20064 ft 476 kts 32°
2026-04-25 04:15 33.99970 -117.85972 20516 ft 478 kts 32°
2026-04-25 04:16 34.02626 -117.83535 20928 ft 482 kts 32°
2026-04-25 04:16 34.05309 -117.81075 21343 ft 485 kts 32°
2026-04-25 04:16 34.07976 -117.78560 21789 ft 491 kts 35°
2026-04-25 04:16 34.10401 -117.75611 22205 ft 500 kts 45°
2026-04-25 04:17 34.12634 -117.72369 22613 ft 505 kts 46°
2026-04-25 04:17 34.14852 -117.69059 23034 ft 509 kts 46°
2026-04-25 04:17 34.17082 -117.65726 23462 ft 512 kts 46°
2026-04-25 04:17 34.19303 -117.62418 23847 ft 515 kts 46°
2026-04-25 04:18 34.21564 -117.59040 24179 ft 520 kts 46°
2026-04-25 04:18 34.23849 -117.55636 24592 ft 522 kts 46°
2026-04-25 04:18 34.26144 -117.52221 24959 ft 525 kts 46°
2026-04-25 04:18 34.28467 -117.48782 25253 ft 529 kts 46°
2026-04-25 04:19 34.30807 -117.45319 25631 ft 532 kts 46°
2026-04-25 04:19 34.33134 -117.41833 26063 ft 534 kts 47°
2026-04-25 04:19 34.35467 -117.38325 26434 ft 537 kts 47°
2026-04-25 04:19 34.37816 -117.34795 26793 ft 540 kts 46°
2026-04-25 04:20 34.40183 -117.31239 27136 ft 543 kts 46°
2026-04-25 04:20 34.42562 -117.27668 27488 ft 546 kts 46°
2026-04-25 04:20 34.44925 -117.24116 27826 ft 549 kts 46°
2026-04-25 04:20 34.47330 -117.20501 28211 ft 552 kts 47°
2026-04-25 04:21 34.49744 -117.16868 28503 ft 554 kts 46°
2026-04-25 04:21 34.52166 -117.13220 28863 ft 556 kts 46°
2026-04-25 04:21 34.54601 -117.09548 29240 ft 558 kts 46°
2026-04-25 04:21 34.57065 -117.05912 29661 ft 558 kts 45°
2026-04-25 04:22 34.59556 -117.02305 30068 ft 557 kts 45°
2026-04-25 04:22 34.62052 -116.98713 30411 ft 556 kts 45°
2026-04-25 04:22 34.64544 -116.95105 30687 ft 558 kts 45°
2026-04-25 04:22 34.67030 -116.91471 31002 ft 560 kts 45°
2026-04-25 04:23 34.69512 -116.87834 31344 ft 559 kts 45°
2026-04-25 04:23 34.72000 -116.84193 31676 ft 560 kts 45°
2026-04-25 04:23 34.74487 -116.80549 31964 ft 561 kts 45°
2026-04-25 04:23 34.76946 -116.76941 32254 ft 561 kts 45°
2026-04-25 04:24 34.79432 -116.73287 32571 ft 561 kts 45°
2026-04-25 04:24 34.81956 -116.69583 32786 ft 562 kts 45°
2026-04-25 04:24 34.84416 -116.65964 33074 ft 562 kts 45°
2026-04-25 04:24 34.86958 -116.62271 33348 ft 561 kts 43°
2026-04-25 04:25 34.89545 -116.58812 33603 ft 559 kts 41°
2026-04-25 04:25 34.92203 -116.55327 33847 ft 562 kts 41°
2026-04-25 04:25 34.94868 -116.51813 33907 ft 566 kts 42°
2026-04-25 04:25 34.97525 -116.48282 34173 ft 564 kts 42°
2026-04-25 04:26 35.00173 -116.44744 34518 ft 561 kts 42°
2026-04-25 04:26 35.02803 -116.41222 34727 ft 562 kts 42°
2026-04-25 04:26 35.05446 -116.37681 34760 ft 566 kts 42°
2026-04-25 04:27 35.10745 -116.30557 34755 ft 566 kts 42°
2026-04-25 04:27 35.16000 -116.23469 34755 ft 565 kts 42°
2026-04-25 04:28 35.21279 -116.16345 34767 ft 566 kts 42°
2026-04-25 04:28 35.26559 -116.09198 34772 ft 566 kts 42°
2026-04-25 04:29 35.31842 -116.02034 34768 ft 566 kts 42°
2026-04-25 04:29 35.37119 -115.94864 34778 ft 566 kts 42°
2026-04-25 04:30 35.42385 -115.87691 34801 ft 564 kts 42°
2026-04-25 04:30 35.47640 -115.80519 34803 ft 564 kts 42°
2026-04-25 04:31 35.52849 -115.73398 34812 ft 564 kts 42°
2026-04-25 04:31 35.58088 -115.66217 34813 ft 564 kts 42°
2026-04-25 04:32 35.63317 -115.59035 34819 ft 564 kts 43°
2026-04-25 04:32 35.68550 -115.51836 34819 ft 564 kts 43°
2026-04-25 04:33 35.73783 -115.44617 34820 ft 564 kts 43°
2026-04-25 04:33 35.79007 -115.37394 34823 ft 564 kts 43°
2026-04-25 04:34 35.84230 -115.30155 34829 ft 565 kts 43°
2026-04-25 04:34 35.89418 -115.22948 34832 ft 566 kts 43°
2026-04-25 04:35 35.94641 -115.15678 34801 ft 566 kts 43°
2026-04-25 04:35 35.99869 -115.08387 34804 ft 566 kts 43°
2026-04-25 04:36 36.05093 -115.01085 34794 ft 566 kts 43°
2026-04-25 04:36 36.10275 -114.93827 34712 ft 567 kts 43°
2026-04-25 04:37 36.15498 -114.86509 34712 ft 566 kts 41°
2026-04-25 04:37 36.21472 -114.80492 34739 ft 544 kts 22°
2026-04-25 04:38 36.28057 -114.75964 34699 ft 540 kts 19°
2026-04-25 04:38 36.34709 -114.71637 34685 ft 540 kts 19°
2026-04-25 04:39 36.41317 -114.67309 34678 ft 540 kts 19°
2026-04-25 04:39 36.47960 -114.62913 34706 ft 540 kts 20°
2026-04-25 04:40 36.54580 -114.58497 34675 ft 539 kts 20°
2026-04-25 04:40 36.61192 -114.54061 34676 ft 538 kts 20°
2026-04-25 04:41 36.67736 -114.49687 34686 ft 538 kts 20°
2026-04-25 04:41 36.74814 -114.44841 34706 ft 542 kts 24°
2026-04-25 04:42 37.07955 -114.18483 34745 ft 539 kts 25°
2026-04-25 04:42 37.58422 -113.78259 34796 ft 533 kts 27°
2026-04-25 04:43 38.08521 -113.38858 34790 ft 525 kts 23°
2026-04-25 04:43 38.59271 -113.02664 34810 ft 525 kts 25°
2026-04-25 04:44 39.09546 -112.65877 34710 ft 519 kts 25°
2026-04-25 04:44 39.58032 -112.24440 34701 ft 524 kts 32°
2026-04-25 04:45 40.05271 -111.79652 34741 ft 525 kts 31°
2026-04-25 04:45 40.52586 -111.33901 34808 ft 530 kts 31°
2026-04-25 04:46 41.00034 -110.87210 34785 ft 533 kts 30°
2026-04-25 04:46 41.47478 -110.39683 34886 ft 533 kts 31°
2026-04-25 04:46 41.70746 -110.15961 34776 ft 532 kts 31°
2026-04-25 04:47 41.94321 -109.91785 34757 ft 534 kts 31°
2026-04-25 04:47 42.41560 -109.42620 34812 ft 537 kts 31°
2026-04-25 04:48 42.88689 -108.92592 34972 ft 534 kts 33°
2026-04-25 04:48 43.35211 -108.42160 35015 ft 532 kts 33°
2026-04-25 04:48 43.60032 -108.21871 35003 ft 511 kts 12°
2026-04-25 04:49 43.86790 -108.09365 34983 ft 515 kts 16°
2026-04-25 04:49 44.40385 -107.81011 34993 ft 513 kts 17°
2026-04-25 04:50 44.93455 -107.52596 35051 ft 507 kts 17°
2026-04-25 04:50 45.45997 -107.23333 35025 ft 508 kts 24°
2026-04-25 04:51 45.95403 -106.84347 35042 ft 504 kts 25°
2026-04-25 04:51 46.44137 -106.45512 35022 ft 503 kts 25°
2026-04-25 04:52 46.93087 -106.05719 35009 ft 504 kts 25°
2026-04-25 04:52 47.40614 -105.60863 34988 ft 508 kts 29°
2026-04-25 04:53 47.87995 -105.14381 34970 ft 511 kts 30°
2026-04-25 04:53 48.35366 -104.66796 34941 ft 514 kts 31°
2026-04-25 04:54 48.82691 -104.18133 34886 ft 515 kts 32°
2026-04-25 04:54 49.31393 -103.72020 34887 ft 518 kts 28°
2026-04-25 04:55 49.80950 -103.26532 34854 ft 518 kts 30°
2026-04-25 04:55 50.30353 -102.80245 34803 ft 521 kts 31°
2026-04-25 04:56 50.79921 -102.32609 34802 ft 521 kts 32°
2026-04-25 04:56 51.28973 -101.84291 34812 ft 522 kts 33°
2026-04-25 04:57 51.70098 -101.42824 34805 ft 521 kts 33°
2026-04-25 04:57 52.30554 -100.94410 34797 ft 519 kts 28°
2026-04-25 04:58 52.82363 -100.52009 34822 ft 521 kts 30°
2026-04-25 04:58 53.25357 -100.15893 34834 ft 523 kts 31°
2026-04-25 04:59 53.77164 -99.71219 34834 ft 521 kts 32°
2026-04-25 04:59 54.28498 -99.25737 34861 ft 516 kts 33°
2026-04-25 05:00 54.79268 -98.79479 34882 ft 514 kts 35°
2026-04-25 05:00 55.29785 -98.32145 34934 ft 514 kts 37°
2026-04-25 05:01 55.79900 -97.83741 34930 ft 517 kts 39°
2026-04-25 05:01 56.02862 -97.55125 36498 ft 500 kts 44°
2026-04-25 05:01 56.25084 -97.26583 36714 ft 484 kts 33°
2026-04-25 05:02 56.68697 -96.70117 36706 ft 480 kts 36°
2026-04-25 05:02 56.90692 -96.41548 37060 ft 491 kts 46°
2026-04-25 05:02 57.13069 -96.10445 37076 ft 510 kts 44°
2026-04-25 05:03 57.58671 -95.47521 37150 ft 510 kts 45°
2026-04-25 05:03 58.03747 -94.83134 37195 ft 509 kts 44°
2026-04-25 05:04 58.48538 -94.16986 37264 ft 512 kts 44°
2026-04-25 05:04 58.93195 -93.48961 37221 ft 513 kts 44°
2026-04-25 05:04 59.15443 -93.14110 37348 ft 514 kts 43°
2026-04-25 05:05 59.37304 -92.79336 37403 ft 516 kts 43°
2026-04-25 05:05 59.81588 -92.07035 37471 ft 517 kts 43°
2026-04-25 05:06 60.25560 -91.32494 37523 ft 519 kts 41°
2026-04-25 05:06 60.69209 -90.55834 37597 ft 519 kts 41°
2026-04-25 05:07 61.10533 -89.72818 37627 ft 523 kts 54°
2026-04-25 05:07 61.45094 -88.75074 37660 ft 527 kts 53°
2026-04-25 05:08 61.79298 -87.75373 37685 ft 525 kts 53°
2026-04-25 05:08 62.12908 -86.73131 37730 ft 530 kts 53°
2026-04-25 05:09 62.46109 -85.67537 37740 ft 532 kts 56°
2026-04-25 05:09 62.62166 -85.14622 37781 ft 519 kts 51°
2026-04-25 05:09 62.77988 -84.60990 37761 ft 524 kts 53°
2026-04-25 05:10 63.08871 -83.53044 37795 ft 527 kts 53°
2026-04-25 05:10 63.39304 -82.41394 37792 ft 532 kts 54°
2026-04-25 05:11 63.68999 -81.26664 37811 ft 533 kts 55°
2026-04-25 05:11 63.97794 -80.09399 37832 ft 531 kts 56°
2026-04-25 05:12 64.16235 -78.78672 37801 ft 539 kts 69°
2026-04-25 05:12 64.24594 -78.12696 37801 ft 537 kts 70°
2026-04-25 05:12 64.40215 -76.80722 37816 ft 531 kts 71°
2026-04-25 05:13 64.54643 -75.47208 37815 ft 531 kts 72°
2026-04-25 05:13 64.67816 -74.12735 37813 ft 531 kts 74°
2026-04-25 05:14 64.79776 -72.76842 37819 ft 535 kts 75°
2026-04-25 05:15 64.95418 -70.70016 37802 ft 536 kts 77°
2026-04-25 05:15 65.07976 -69.32846 37801 ft 532 kts 70°
2026-04-25 05:16 65.23086 -67.95992 37767 ft 535 kts 72°
2026-04-25 05:16 65.36984 -66.57229 37715 ft 536 kts 74°
2026-04-25 05:17 65.49666 -65.16182 37708 ft 538 kts 76°
2026-04-25 05:17 65.61012 -63.73951 37685 ft 538 kts 77°
2026-04-25 05:18 65.70952 -62.31859 37692 ft 536 kts 78°
2026-04-25 05:18 65.79526 -60.89152 37691 ft 538 kts 80°
2026-04-25 05:19 65.86823 -59.44411 37665 ft 533 kts 82°
2026-04-25 05:19 65.92694 -58.00099 37625 ft 526 kts 85°
2026-04-25 05:20 65.97002 -56.58724 37564 ft 524 kts 87°
2026-04-25 05:20 66.00051 -55.16984 37527 ft 521 kts 89°
2026-04-25 05:21 66.01762 -53.75162 37445 ft 514 kts 90°
2026-04-25 05:21 66.02198 -52.35505 37393 ft 507 kts 92°
2026-04-25 05:22 66.01368 -50.96963 37345 ft 507 kts 93°
2026-04-25 05:22 65.99319 -49.59444 37371 ft 498 kts 94°
2026-04-25 05:23 65.96115 -48.24837 37330 ft 493 kts 96°
2026-04-25 05:23 65.91743 -46.91536 37317 ft 490 kts 97°
2026-04-25 05:24 65.86284 -45.59630 37320 ft 487 kts 99°
2026-04-25 05:24 65.79755 -44.29284 37315 ft 484 kts 101°
2026-04-25 05:25 65.72163 -43.00448 37301 ft 479 kts 102°
2026-04-25 05:25 65.63567 -41.73374 37344 ft 475 kts 103°
2026-04-25 05:26 65.53989 -40.48076 37413 ft 472 kts 105°
2026-04-25 05:26 65.48925 -39.85964 38000 ft 470 kts 104°
2026-04-25 05:26 65.45044 -39.24520 39263 ft 470 kts 103°
2026-04-25 05:26 65.40489 -38.61250 39463 ft 476 kts 103°
2026-04-25 05:27 65.35855 -37.99744 39456 ft 473 kts 104°
2026-04-25 05:27 65.25720 -36.76451 39436 ft 469 kts 105°
2026-04-25 05:28 65.14700 -35.55310 39425 ft 466 kts 106°
2026-04-25 05:28 65.02770 -34.35778 39397 ft 464 kts 107°
2026-04-25 05:29 64.89985 -33.18112 39381 ft 462 kts 107°
2026-04-25 05:29 64.76298 -32.01834 39360 ft 462 kts 108°
2026-04-25 05:30 64.61752 -30.87053 39348 ft 461 kts 109°
2026-04-25 05:30 64.45200 -29.74263 39357 ft 460 kts 117°
2026-04-25 05:31 64.23174 -28.67594 39363 ft 461 kts 117°
2026-04-25 05:31 64.00679 -27.62818 39362 ft 460 kts 117°
2026-04-25 05:32 63.77323 -26.59236 39372 ft 460 kts 118°
2026-04-25 05:32 63.53242 -25.57386 39389 ft 460 kts 118°
2026-04-25 05:33 63.28427 -24.57108 39352 ft 461 kts 119°
2026-04-25 05:33 63.02959 -23.58763 39344 ft 460 kts 120°
2026-04-25 05:34 62.76820 -22.62145 39338 ft 462 kts 120°
2026-04-25 05:34 62.49943 -21.66946 39337 ft 463 kts 121°
2026-04-25 05:35 62.22376 -20.73268 39334 ft 463 kts 122°
2026-04-25 05:35 61.93797 -19.81547 39333 ft 463 kts 127°
2026-04-25 05:36 61.61983 -18.96265 39340 ft 465 kts 127°
2026-04-25 05:36 61.29712 -18.11880 39356 ft 465 kts 128°
2026-04-25 05:37 60.96820 -17.28915 39347 ft 467 kts 128°
2026-04-25 05:37 60.63245 -16.47314 39323 ft 466 kts 129°
2026-04-25 05:38 60.29130 -15.67084 39299 ft 470 kts 129°
2026-04-25 05:38 59.94071 -14.87578 39262 ft 476 kts 130°
2026-04-25 05:39 59.58478 -14.09535 39258 ft 479 kts 131°
2026-04-25 05:39 59.21963 -13.32264 39265 ft 483 kts 133°
2026-04-25 05:40 58.85188 -12.56819 39250 ft 483 kts 134°
2026-04-25 05:40 58.48006 -11.83297 39258 ft 481 kts 135°
2026-04-25 05:41 58.10494 -11.11367 39257 ft 477 kts 135°
2026-04-25 05:41 57.72345 -10.40443 39072 ft 479 kts 135°
2026-04-25 05:41 57.53116 -10.05576 39221 ft 482 kts 136°
2026-04-25 05:42 57.46108 -9.84310 38646 ft 406 kts 107°